Time,TemperatureF,DewpointF,PressureIn,WindDirection,WindDirectionDegrees,WindSpeedMPH,WindSpeedGustMPH,Humidity,HourlyPrecipIn,Conditions,Clouds,dailyrainin,SoftwareType,DateUTC
2013-09-14 00:01:00,58.8,53.7,29.74,WNW,290,0.0,2.0,83,0.00,,OVC120,0.00,VWS V14.01,2013-09-14 04:01:00,
2013-09-14 00:02:00,58.8,54.0,29.74,West,272,0.0,2.0,84,0.00,,OVC120,0.00,VWS V14.01,2013-09-14 04:02:00,
2013-09-14 00:07:00,58.8,53.7,29.74,NNE,22,0.0,3.0,83,0.00,,OVC120,0.00,VWS V14.01,2013-09-14 04:07:00,
2013-09-14 00:12:00,58.9,53.8,29.74,NNE,26,1.0,3.0,83,0.00,,OVC120,0.00,VWS V14.01,2013-09-14 04:12:00,
2013-09-14 00:17:00,58.9,53.8,29.74,NNE,32,1.0,6.0,83,0.00,,OVC120,0.00,VWS V14.01,2013-09-14 04:17:00,
2013-09-14 00:22:00,59.1,53.6,29.74,NW,312,0.0,6.0,82,0.00,,OVC120,0.00,VWS V14.01,2013-09-14 04:22:00,
2013-09-14 00:27:00,59.1,53.6,29.75,WNW,296,0.0,6.0,82,0.00,,OVC120,0.00,VWS V14.01,2013-09-14 04:27:00,
2013-09-14 00:32:00,59.1,53.6,29.75,WSW,241,0.0,6.0,82,0.00,,OVC120,0.00,VWS V14.01,2013-09-14 04:32:00,
2013-09-14 00:37:00,59.2,53.7,29.75,NNE,26,0.0,6.0,82,0.00,,OVC120,0.00,VWS V14.01,2013-09-14 04:37:00,
2013-09-14 00:43:00,59.2,53.7,29.75,NNW,327,1.0,6.0,82,0.00,,OVC120,0.00,VWS V14.01,2013-09-14 04:43:00,
2013-09-14 00:47:00,59.3,53.5,29.75,NNE,30,2.0,6.0,81,0.00,,OVC120,0.00,VWS V14.01,2013-09-14 04:47:00,
2013-09-14 00:52:00,59.3,53.5,29.75,NW,310,1.0,6.0,81,0.00,,OVC120,0.00,VWS V14.01,2013-09-14 04:52:00,
2013-09-14 00:57:00,59.2,53.4,29.75,North,355,0.0,6.0,81,0.00,,OVC120,0.00,VWS V14.01,2013-09-14 04:57:00,
2013-09-14 01:02:00,59.3,53.5,29.75,WNW,300,0.0,2.0,81,0.00,,OVC049,0.00,VWS V14.01,2013-09-14 05:02:00,
2013-09-14 01:07:00,59.3,53.5,29.75,NNW,348,2.0,3.0,81,0.00,,OVC049,0.00,VWS V14.01,2013-09-14 05:07:00,
2013-09-14 01:12:00,59.3,53.5,29.75,NW,323,0.0,3.0,81,0.00,,OVC049,0.00,VWS V14.01,2013-09-14 05:12:00,
2013-09-14 01:17:00,59.3,53.5,29.75,NW,326,0.0,3.0,81,0.00,,OVC049,0.00,VWS V14.01,2013-09-14 05:17:00,
2013-09-14 01:22:00,59.3,53.1,29.76,NW,304,0.0,3.0,80,0.00,,OVC049,0.00,VWS V14.01,2013-09-14 05:22:00,
2013-09-14 01:27:00,59.3,53.1,29.76,WNW,299,2.0,3.0,80,0.00,,OVC049,0.00,VWS V14.01,2013-09-14 05:27:00,
2013-09-14 01:32:00,59.3,53.1,29.76,NNE,26,1.0,3.0,80,0.00,,OVC049,0.00,VWS V14.01,2013-09-14 05:32:00,
2013-09-14 01:37:00,59.3,53.1,29.76,West,269,0.0,3.0,80,0.00,,OVC049,0.00,VWS V14.01,2013-09-14 05:37:00,
2013-09-14 01:43:00,59.3,53.1,29.76,WNW,294,1.0,3.0,80,0.00,,OVC049,0.00,VWS V14.01,2013-09-14 05:43:00,
2013-09-14 01:48:00,59.3,53.1,29.76,WNW,297,1.0,3.0,80,0.00,,OVC049,0.00,VWS V14.01,2013-09-14 05:48:00,
2013-09-14 01:53:00,59.3,53.1,29.76,WNW,285,0.0,4.0,80,0.00,,OVC049,0.00,VWS V14.01,2013-09-14 05:53:00,
2013-09-14 01:58:00,59.2,53.0,29.76,NNW,333,0.0,4.0,80,0.00,,OVC049,0.00,VWS V14.01,2013-09-14 05:58:00,
2013-09-14 02:03:00,59.2,53.4,29.76,NE,38,0.0,1.0,81,0.00,,OVC038,0.00,VWS V14.01,2013-09-14 06:03:00,
2013-09-14 02:08:00,59.2,53.4,29.76,NNW,333,0.0,3.0,81,0.00,,OVC038,0.00,VWS V14.01,2013-09-14 06:08:00,
2013-09-14 02:13:00,59.2,53.0,29.76,SSW,211,0.0,3.0,80,0.00,,OVC038,0.00,VWS V14.01,2013-09-14 06:13:00,
2013-09-14 02:18:00,59.2,53.0,29.76,West,277,0.0,3.0,80,0.00,,OVC038,0.00,VWS V14.01,2013-09-14 06:18:00,
2013-09-14 02:23:00,59.1,52.9,29.76,WNW,289,0.0,3.0,80,0.00,,OVC038,0.00,VWS V14.01,2013-09-14 06:23:00,
2013-09-14 02:28:00,59.1,53.3,29.76,NW,306,0.0,3.0,81,0.00,,OVC038,0.00,VWS V14.01,2013-09-14 06:28:00,
2013-09-14 02:33:00,59.1,53.3,29.76,NNE,26,0.0,3.0,81,0.00,,OVC038,0.00,VWS V14.01,2013-09-14 06:33:00,
2013-09-14 02:38:00,59.0,53.2,29.76,NW,325,0.0,3.0,81,0.00,,OVC038,0.00,VWS V14.01,2013-09-14 06:38:00,
2013-09-14 02:43:00,59.0,53.2,29.76,NNE,30,0.0,3.0,81,0.00,,OVC038,0.00,VWS V14.01,2013-09-14 06:43:00,
2013-09-14 02:48:00,58.8,53.0,29.76,NE,36,0.0,3.0,81,0.00,,OVC038,0.00,VWS V14.01,2013-09-14 06:48:00,
2013-09-14 02:53:00,58.7,53.2,29.76,WNW,299,0.0,3.0,82,0.00,,OVC038,0.00,VWS V14.01,2013-09-14 06:53:00,
2013-09-14 02:58:00,58.6,53.1,29.76,WNW,300,0.0,3.0,82,0.00,,OVC038,0.00,VWS V14.01,2013-09-14 06:58:00,
2013-09-14 03:03:00,58.4,53.3,29.77,WNW,300,0.0,0.0,83,0.00,,OVC038,0.00,VWS V14.01,2013-09-14 07:03:00,
2013-09-14 03:08:00,58.4,53.3,29.77,WNW,301,0.0,0.0,83,0.00,,OVC038,0.00,VWS V14.01,2013-09-14 07:08:00,
2013-09-14 03:13:00,58.4,53.3,29.77,NW,312,0.0,1.0,83,0.00,,OVC038,0.00,VWS V14.01,2013-09-14 07:13:00,
2013-09-14 03:18:00,58.4,53.3,29.77,WNW,292,1.0,1.0,83,0.00,,OVC038,0.00,VWS V14.01,2013-09-14 07:18:00,
2013-09-14 03:23:00,58.5,53.4,29.77,West,272,0.0,2.0,83,0.00,,OVC038,0.00,VWS V14.01,2013-09-14 07:23:00,
2013-09-14 03:28:00,58.6,53.5,29.78,WNW,294,0.0,2.0,83,0.00,,OVC038,0.00,VWS V14.01,2013-09-14 07:28:00,
2013-09-14 03:33:00,58.6,53.1,29.78,NW,311,0.0,2.0,82,0.00,,OVC038,0.00,VWS V14.01,2013-09-14 07:33:00,
2013-09-14 03:38:00,58.6,53.5,29.78,WNW,287,1.0,2.0,83,0.00,,OVC038,0.00,VWS V14.01,2013-09-14 07:38:00,
2013-09-14 03:43:00,58.5,53.4,29.77,WNW,285,0.0,2.0,83,0.00,,OVC038,0.00,VWS V14.01,2013-09-14 07:43:00,
2013-09-14 03:48:00,58.4,53.3,29.77,NNW,332,0.0,2.0,83,0.00,,OVC038,0.00,VWS V14.01,2013-09-14 07:48:00,
2013-09-14 03:53:00,58.4,53.3,29.78,WSW,238,0.0,2.0,83,0.00,,OVC038,0.00,VWS V14.01,2013-09-14 07:53:00,
2013-09-14 03:58:00,58.3,53.2,29.77,West,281,0.0,2.0,83,0.00,,OVC038,0.00,VWS V14.01,2013-09-14 07:58:00,
2013-09-14 04:03:00,58.3,52.8,29.77,NW,311,0.0,4.0,82,0.00,,OVC040,0.00,VWS V14.01,2013-09-14 08:03:00,
2013-09-14 04:08:00,58.2,52.7,29.77,NW,306,0.0,4.0,82,0.00,,OVC040,0.00,VWS V14.01,2013-09-14 08:08:00,
2013-09-14 04:13:00,58.2,53.1,29.77,NNE,20,0.0,4.0,83,0.00,,OVC040,0.00,VWS V14.01,2013-09-14 08:13:00,
2013-09-14 04:18:00,58.1,53.0,29.77,NNW,340,0.0,4.0,83,0.00,,OVC040,0.00,VWS V14.01,2013-09-14 08:18:00,
2013-09-14 04:23:00,58.1,53.0,29.77,North,5,0.0,4.0,83,0.00,,OVC040,0.00,VWS V14.01,2013-09-14 08:23:00,
2013-09-14 04:28:00,58.0,52.9,29.77,NNW,348,0.0,4.0,83,0.00,,OVC040,0.00,VWS V14.01,2013-09-14 08:28:00,
2013-09-14 04:33:00,57.9,52.8,29.78,WNW,289,0.0,4.0,83,0.00,,OVC040,0.00,VWS V14.01,2013-09-14 08:33:00,
2013-09-14 04:38:00,57.9,52.8,29.78,WNW,294,1.0,4.0,83,0.00,,OVC040,0.00,VWS V14.01,2013-09-14 08:38:00,
2013-09-14 04:43:00,57.9,52.8,29.78,WNW,296,0.0,4.0,83,0.00,,OVC040,0.00,VWS V14.01,2013-09-14 08:43:00,
2013-09-14 04:48:00,57.9,52.8,29.78,WNW,296,0.0,4.0,83,0.00,,OVC040,0.00,VWS V14.01,2013-09-14 08:48:00,
2013-09-14 04:53:00,57.9,52.8,29.78,NNW,336,0.0,4.0,83,0.00,,OVC040,0.00,VWS V14.01,2013-09-14 08:53:00,
2013-09-14 04:58:00,57.8,52.7,29.78,WNW,296,0.0,4.0,83,0.00,,OVC040,0.00,VWS V14.01,2013-09-14 08:58:00,
2013-09-14 05:03:00,57.8,52.7,29.78,WNW,294,0.0,2.0,83,0.00,,OVC040,0.00,VWS V14.01,2013-09-14 09:03:00,
2013-09-14 05:08:00,57.8,53.0,29.78,WNW,288,0.0,2.0,84,0.00,,OVC040,0.00,VWS V14.01,2013-09-14 09:08:00,
2013-09-14 05:13:00,57.8,53.0,29.79,South,187,0.0,2.0,84,0.00,,OVC040,0.00,VWS V14.01,2013-09-14 09:13:00,
2013-09-14 05:17:00,57.7,52.9,29.79,WSW,249,0.0,2.0,84,0.00,,OVC040,0.00,VWS V14.01,2013-09-14 09:17:00,
2013-09-14 05:22:00,57.6,52.8,29.79,NW,323,0.0,2.0,84,0.00,,OVC040,0.00,VWS V14.01,2013-09-14 09:22:00,
2013-09-14 05:27:00,57.5,52.7,29.79,NW,307,0.0,2.0,84,0.00,,OVC040,0.00,VWS V14.01,2013-09-14 09:27:00,
2013-09-14 05:32:00,57.4,52.6,29.80,WNW,286,1.0,2.0,84,0.00,,OVC040,0.00,VWS V14.01,2013-09-14 09:32:00,
2013-09-14 05:37:00,57.4,52.6,29.80,WNW,299,0.0,2.0,84,0.00,,OVC040,0.00,VWS V14.01,2013-09-14 09:37:00,
2013-09-14 05:42:00,57.3,52.8,29.79,NW,318,0.0,2.0,85,0.00,,OVC040,0.00,VWS V14.01,2013-09-14 09:42:00,
2013-09-14 05:47:00,57.2,52.7,29.80,NNW,327,1.0,4.0,85,0.00,,OVC040,0.00,VWS V14.01,2013-09-14 09:47:00,
2013-09-14 05:52:00,57.2,52.7,29.80,NE,53,1.0,4.0,85,0.00,,OVC040,0.00,VWS V14.01,2013-09-14 09:52:00,
2013-09-14 05:57:00,57.1,52.6,29.80,NE,36,0.0,4.0,85,0.00,,OVC040,0.00,VWS V14.01,2013-09-14 09:57:00,
2013-09-14 06:02:00,57.1,52.6,29.80,WNW,284,0.0,3.0,85,0.00,,OVC040,0.00,VWS V14.01,2013-09-14 10:02:00,
2013-09-14 06:07:00,57.1,52.6,29.80,NW,319,0.0,3.0,85,0.00,,OVC040,0.00,VWS V14.01,2013-09-14 10:07:00,
2013-09-14 06:12:00,57.1,52.6,29.81,NW,319,0.0,3.0,85,0.00,,OVC040,0.00,VWS V14.01,2013-09-14 10:12:00,
2013-09-14 06:17:00,57.1,52.6,29.81,WSW,257,0.0,3.0,85,0.00,,OVC040,0.00,VWS V14.01,2013-09-14 10:17:00,
2013-09-14 06:22:00,57.1,52.6,29.81,WNW,294,0.0,3.0,85,0.00,,OVC040,0.00,VWS V14.01,2013-09-14 10:22:00,
2013-09-14 06:27:00,57.1,52.6,29.81,WNW,294,1.0,3.0,85,0.00,,OVC040,0.00,VWS V14.01,2013-09-14 10:27:00,
2013-09-14 06:32:00,57.1,52.6,29.81,WSW,257,0.0,3.0,85,0.00,,OVC040,0.00,VWS V14.01,2013-09-14 10:32:00,
2013-09-14 06:37:00,57.0,52.5,29.81,West,273,0.0,3.0,85,0.00,,OVC040,0.00,VWS V14.01,2013-09-14 10:37:00,
2013-09-14 06:42:00,57.0,52.5,29.81,WNW,291,1.0,3.0,85,0.00,,OVC040,0.00,VWS V14.01,2013-09-14 10:42:00,
2013-09-14 06:47:00,56.9,52.4,29.81,SW,227,0.0,3.0,85,0.00,,OVC040,0.00,VWS V14.01,2013-09-14 10:47:00,
2013-09-14 06:52:00,56.9,52.4,29.82,West,281,0.0,3.0,85,0.00,,OVC040,0.00,VWS V14.01,2013-09-14 10:52:00,
2013-09-14 06:57:00,56.9,52.4,29.82,WNW,286,0.0,3.0,85,0.00,,OVC040,0.00,VWS V14.01,2013-09-14 10:57:00,
2013-09-14 07:02:00,56.8,52.3,29.82,WNW,289,0.0,1.0,85,0.00,,OVC046,0.00,VWS V14.01,2013-09-14 11:02:00,
2013-09-14 07:07:00,56.9,52.4,29.82,WNW,298,0.0,1.0,85,0.00,,OVC046,0.00,VWS V14.01,2013-09-14 11:07:00,
2013-09-14 07:12:00,57.0,52.5,29.82,WSW,252,1.0,1.0,85,0.00,,OVC046,0.00,VWS V14.01,2013-09-14 11:12:00,
2013-09-14 07:17:00,57.1,52.3,29.82,WSW,249,0.0,2.0,84,0.00,,OVC046,0.00,VWS V14.01,2013-09-14 11:17:00,
2013-09-14 07:22:00,57.2,52.7,29.83,West,269,0.0,4.0,85,0.00,,OVC046,0.00,VWS V14.01,2013-09-14 11:22:00,
2013-09-14 07:27:00,57.3,52.5,29.83,WNW,294,0.0,4.0,84,0.00,,OVC046,0.00,VWS V14.01,2013-09-14 11:27:00,
2013-09-14 07:32:00,57.3,52.5,29.83,SW,234,0.0,4.0,84,0.00,,OVC046,0.00,VWS V14.01,2013-09-14 11:32:00,
2013-09-14 07:37:00,57.3,52.5,29.83,WNW,283,0.0,4.0,84,0.00,,OVC046,0.00,VWS V14.01,2013-09-14 11:37:00,
2013-09-14 07:42:00,57.4,52.6,29.83,NW,313,0.0,4.0,84,0.00,,OVC046,0.00,VWS V14.01,2013-09-14 11:42:00,
2013-09-14 07:47:00,57.3,52.5,29.84,NNE,32,0.0,4.0,84,0.00,,OVC046,0.00,VWS V14.01,2013-09-14 11:47:00,
2013-09-14 07:52:00,57.3,52.5,29.84,WNW,299,0.0,4.0,84,0.00,,OVC046,0.00,VWS V14.01,2013-09-14 11:52:00,
2013-09-14 07:57:00,57.2,52.1,29.84,WNW,283,0.0,4.0,83,0.00,,OVC046,0.00,VWS V14.01,2013-09-14 11:57:00,
2013-09-14 08:02:00,57.3,52.5,29.84,WNW,289,0.0,1.0,84,0.00,,OVC046,0.00,VWS V14.01,2013-09-14 12:02:00,
2013-09-14 08:07:00,57.3,52.5,29.84,WSW,240,0.0,2.0,84,0.00,,OVC046,0.00,VWS V14.01,2013-09-14 12:07:00,
2013-09-14 08:12:00,57.4,52.3,29.84,WNW,296,1.0,2.0,83,0.00,,OVC046,0.00,VWS V14.01,2013-09-14 12:12:00,
2013-09-14 08:17:00,57.5,52.4,29.85,WNW,296,0.0,2.0,83,0.00,,OVC046,0.00,VWS V14.01,2013-09-14 12:17:00,
2013-09-14 08:22:00,57.6,52.5,29.85,West,273,0.0,2.0,83,0.00,,OVC046,0.00,VWS V14.01,2013-09-14 12:22:00,
2013-09-14 08:27:00,57.9,52.8,29.85,North,350,1.0,2.0,83,0.00,,OVC046,0.00,VWS V14.01,2013-09-14 12:27:00,
2013-09-14 08:33:00,58.0,52.5,29.85,NNE,20,0.0,4.0,82,0.00,,OVC046,0.00,VWS V14.01,2013-09-14 12:33:00,
2013-09-14 08:38:00,57.9,52.1,29.85,NNW,330,5.0,6.0,81,0.00,,OVC046,0.00,VWS V14.01,2013-09-14 12:38:00,
2013-09-14 08:43:00,57.8,52.3,29.85,NNW,346,1.0,6.0,82,0.00,,OVC046,0.00,VWS V14.01,2013-09-14 12:43:00,
2013-09-14 08:48:00,58.0,52.5,29.86,WNW,300,0.0,6.0,82,0.00,,OVC046,0.00,VWS V14.01,2013-09-14 12:48:00,
2013-09-14 08:53:00,58.1,52.6,29.86,NNE,24,0.0,6.0,82,0.00,,OVC046,0.00,VWS V14.01,2013-09-14 12:53:00,
2013-09-14 08:58:00,58.2,52.7,29.86,West,281,0.0,2.0,82,0.00,,OVC046,0.00,VWS V14.01,2013-09-14 12:58:00,
2013-09-14 09:03:00,58.2,52.4,29.86,ESE,114,1.0,3.0,81,0.00,,OVC039,0.00,VWS V14.01,2013-09-14 13:03:00,
2013-09-14 09:08:00,58.3,52.5,29.86,NW,322,0.0,3.0,81,0.00,,OVC039,0.00,VWS V14.01,2013-09-14 13:08:00,
2013-09-14 09:13:00,58.4,52.6,29.86,WNW,298,2.0,3.0,81,0.00,,OVC039,0.00,VWS V14.01,2013-09-14 13:13:00,
2013-09-14 09:18:00,58.5,52.7,29.86,WNW,294,0.0,4.0,81,0.00,,OVC039,0.00,VWS V14.01,2013-09-14 13:18:00,
2013-09-14 09:23:00,58.7,52.9,29.87,WNW,295,3.0,4.0,81,0.00,,OVC039,0.00,VWS V14.01,2013-09-14 13:23:00,
2013-09-14 09:28:00,58.7,52.6,29.87,NNE,30,2.0,6.0,80,0.00,,OVC039,0.00,VWS V14.01,2013-09-14 13:28:00,
2013-09-14 09:33:00,58.8,52.7,29.87,WNW,284,1.0,6.0,80,0.00,,OVC039,0.00,VWS V14.01,2013-09-14 13:33:00,
2013-09-14 09:38:00,58.9,52.8,29.87,NW,304,0.0,6.0,80,0.00,,OVC039,0.00,VWS V14.01,2013-09-14 13:38:00,
2013-09-14 09:43:00,59.2,53.0,29.87,WNW,291,1.0,6.0,80,0.00,,OVC039,0.00,VWS V14.01,2013-09-14 13:43:00,
2013-09-14 09:48:00,59.2,52.3,29.87,NNE,13,2.0,6.0,78,0.00,,OVC039,0.00,VWS V14.01,2013-09-14 13:48:00,
2013-09-14 09:53:00,59.3,52.5,29.88,NW,304,0.0,6.0,78,0.00,,OVC039,0.00,VWS V14.01,2013-09-14 13:53:00,
2013-09-14 09:58:00,59.3,52.5,29.88,NW,310,1.0,1.0,78,0.00,,OVC039,0.00,VWS V14.01,2013-09-14 13:58:00,
2013-09-14 10:03:00,59.5,52.6,29.88,WNW,291,0.0,3.0,78,0.00,,OVC037,0.00,VWS V14.01,2013-09-14 14:03:00,
2013-09-14 10:08:00,59.6,52.4,29.88,WNW,299,2.0,4.0,77,0.00,,OVC037,0.00,VWS V14.01,2013-09-14 14:08:00,
2013-09-14 10:13:00,59.7,52.5,29.88,North,360,1.0,4.0,77,0.00,,OVC037,0.00,VWS V14.01,2013-09-14 14:13:00,
2013-09-14 10:18:00,60.1,52.9,29.88,NNE,15,1.0,4.0,77,0.00,,OVC037,0.00,VWS V14.01,2013-09-14 14:18:00,
2013-09-14 10:23:00,60.2,52.6,29.88,WNW,286,2.0,6.0,76,0.00,,OVC037,0.00,VWS V14.01,2013-09-14 14:23:00,
2013-09-14 10:28:00,60.5,52.9,29.88,NW,309,1.0,6.0,76,0.00,,OVC037,0.00,VWS V14.01,2013-09-14 14:28:00,
2013-09-14 10:33:00,60.8,53.2,29.88,NW,306,2.0,6.0,76,0.00,,OVC037,0.00,VWS V14.01,2013-09-14 14:33:00,
2013-09-14 10:38:00,61.1,53.5,29.88,WNW,283,0.0,6.0,76,0.00,,OVC037,0.00,VWS V14.01,2013-09-14 14:38:00,
2013-09-14 10:44:00,61.5,53.5,29.88,WNW,283,0.0,6.0,75,0.00,,OVC037,0.00,VWS V14.01,2013-09-14 14:44:00,
2013-09-14 10:49:00,62.0,54.4,29.88,ENE,57,0.0,6.0,76,0.00,,OVC037,0.00,VWS V14.01,2013-09-14 14:49:00,
2013-09-14 10:54:00,62.7,54.3,29.88,South,176,1.0,6.0,74,0.00,,OVC037,0.00,VWS V14.01,2013-09-14 14:54:00,
2013-09-14 10:59:00,62.6,53.8,29.88,WSW,248,1.0,2.0,73,0.00,,OVC037,0.00,VWS V14.01,2013-09-14 14:59:00,
2013-09-14 11:04:00,62.7,53.9,29.88,NW,318,0.0,2.0,73,0.00,,OVC037,0.00,VWS V14.01,2013-09-14 15:04:00,
2013-09-14 11:09:00,63.1,53.9,29.88,WNW,294,1.0,2.0,72,0.00,,OVC037,0.00,VWS V14.01,2013-09-14 15:09:00,
2013-09-14 11:14:00,63.3,54.5,29.88,NNE,26,1.0,8.0,73,0.00,,OVC037,0.00,VWS V14.01,2013-09-14 15:14:00,
2013-09-14 11:19:00,63.8,54.2,29.88,WNW,287,0.0,8.0,71,0.00,,OVC037,0.00,VWS V14.01,2013-09-14 15:19:00,
2013-09-14 11:24:00,64.1,54.1,29.88,West,259,2.0,8.0,70,0.00,,OVC037,0.00,VWS V14.01,2013-09-14 15:24:00,
2013-09-14 11:29:00,64.0,54.4,29.88,West,259,1.0,8.0,71,0.00,,OVC037,0.00,VWS V14.01,2013-09-14 15:29:00,
2013-09-14 11:34:00,64.0,53.6,29.88,NW,312,0.0,8.0,69,0.00,,OVC037,0.00,VWS V14.01,2013-09-14 15:34:00,
2013-09-14 11:39:00,64.3,54.7,29.88,West,261,1.0,8.0,71,0.00,,OVC037,0.00,VWS V14.01,2013-09-14 15:39:00,
2013-09-14 11:44:00,64.9,54.5,29.88,WNW,289,0.0,8.0,69,0.00,,OVC037,0.00,VWS V14.01,2013-09-14 15:44:00,
2013-09-14 11:49:00,65.2,55.2,29.89,ESE,123,0.0,8.0,70,0.00,,OVC037,0.00,VWS V14.01,2013-09-14 15:49:00,
2013-09-14 11:54:00,65.4,55.0,29.88,West,264,1.0,8.0,69,0.00,,OVC037,0.00,VWS V14.01,2013-09-14 15:54:00,
2013-09-14 11:59:00,65.5,54.3,29.88,NW,309,0.0,1.0,67,0.00,,OVC037,0.00,VWS V14.01,2013-09-14 15:59:00,
2013-09-14 12:04:00,65.7,54.9,29.89,West,277,0.0,4.0,68,0.00,,BKN029,0.00,VWS V14.01,2013-09-14 16:04:00,
2013-09-14 12:09:00,66.0,54.7,29.89,WNW,294,1.0,4.0,67,0.00,,BKN029,0.00,VWS V14.01,2013-09-14 16:09:00,
2013-09-14 12:13:00,66.0,55.2,29.88,West,281,1.0,4.0,68,0.00,,BKN029,0.00,VWS V14.01,2013-09-14 16:13:00,
2013-09-14 12:19:00,66.2,55.3,29.88,WNW,283,1.0,4.0,68,0.00,,BKN029,0.00,VWS V14.01,2013-09-14 16:19:00,
2013-09-14 12:23:00,66.0,54.7,29.88,WNW,298,0.0,4.0,67,0.00,,BKN029,0.00,VWS V14.01,2013-09-14 16:23:00,
2013-09-14 12:28:00,66.1,54.8,29.88,WSW,252,2.0,4.0,67,0.00,,BKN029,0.00,VWS V14.01,2013-09-14 16:28:00,
2013-09-14 12:33:00,65.8,54.5,29.88,NW,318,0.0,4.0,67,0.00,,BKN029,0.00,VWS V14.01,2013-09-14 16:33:00,
2013-09-14 12:38:00,65.5,54.7,29.88,West,265,2.0,4.0,68,0.00,,BKN029,0.00,VWS V14.01,2013-09-14 16:38:00,
2013-09-14 12:44:00,65.2,54.4,29.89,West,264,2.0,4.0,68,0.00,,BKN029,0.00,VWS V14.01,2013-09-14 16:44:00,
2013-09-14 12:48:00,65.1,54.7,29.89,SSW,211,1.0,4.0,69,0.00,,BKN029,0.00,VWS V14.01,2013-09-14 16:48:00,
2013-09-14 12:53:00,65.1,54.3,29.89,WNW,287,0.0,4.0,68,0.00,,BKN029,0.00,VWS V14.01,2013-09-14 16:53:00,
2013-09-14 12:58:00,65.2,54.0,29.89,SSW,202,1.0,4.0,67,0.00,,BKN029,0.00,VWS V14.01,2013-09-14 16:58:00,
2013-09-14 13:03:00,65.1,54.3,29.89,WNW,294,2.0,5.0,68,0.00,,BKN027,0.00,VWS V14.01,2013-09-14 17:03:00,
2013-09-14 13:08:00,65.0,53.8,29.89,North,355,6.0,6.0,67,0.00,,BKN027,0.00,VWS V14.01,2013-09-14 17:08:00,
2013-09-14 13:13:00,64.8,54.0,29.89,NW,317,2.0,6.0,68,0.00,,BKN027,0.00,VWS V14.01,2013-09-14 17:13:00,
2013-09-14 13:18:00,64.9,54.1,29.89,WNW,300,1.0,6.0,68,0.00,,BKN027,0.00,VWS V14.01,2013-09-14 17:18:00,
2013-09-14 13:23:00,65.3,53.7,29.89,WNW,298,2.0,6.0,66,0.00,,BKN027,0.00,VWS V14.01,2013-09-14 17:23:00,
2013-09-14 13:28:00,65.4,54.2,29.89,WNW,287,1.0,6.0,67,0.00,,BKN027,0.00,VWS V14.01,2013-09-14 17:28:00,
2013-09-14 13:33:00,65.4,53.3,29.89,WNW,299,1.0,6.0,65,0.00,,BKN027,0.00,VWS V14.01,2013-09-14 17:33:00,
2013-09-14 13:38:00,65.4,53.8,29.89,West,275,3.0,6.0,66,0.00,,BKN027,0.00,VWS V14.01,2013-09-14 17:38:00,
2013-09-14 13:43:00,65.2,54.0,29.89,West,272,2.0,6.0,67,0.00,,BKN027,0.00,VWS V14.01,2013-09-14 17:43:00,
2013-09-14 13:48:00,65.0,53.8,29.89,WNW,287,1.0,6.0,67,0.00,,BKN027,0.00,VWS V14.01,2013-09-14 17:48:00,
2013-09-14 13:53:00,65.1,53.9,29.89,West,263,0.0,6.0,67,0.00,,BKN027,0.00,VWS V14.01,2013-09-14 17:53:00,
2013-09-14 13:58:00,65.4,54.2,29.89,West,270,0.0,1.0,67,0.00,,BKN027,0.00,VWS V14.01,2013-09-14 17:58:00,
2013-09-14 14:03:00,65.6,54.4,29.89,WSW,249,1.0,4.0,67,0.00,,OVC036,0.00,VWS V14.01,2013-09-14 18:03:00,
2013-09-14 14:09:00,65.6,54.4,29.89,WSW,249,0.0,4.0,67,0.00,,OVC036,0.00,VWS V14.01,2013-09-14 18:09:00,
2013-09-14 14:14:00,65.3,53.7,29.89,NW,325,1.0,5.0,66,0.00,,OVC036,0.00,VWS V14.01,2013-09-14 18:14:00,
2013-09-14 14:19:00,65.1,53.9,29.89,WNW,291,1.0,5.0,67,0.00,,OVC036,0.00,VWS V14.01,2013-09-14 18:19:00,
2013-09-14 14:24:00,65.2,54.0,29.89,SW,231,3.0,5.0,67,0.00,,OVC036,0.00,VWS V14.01,2013-09-14 18:24:00,
2013-09-14 14:29:00,65.4,54.6,29.89,WNW,296,1.0,5.0,68,0.00,,OVC036,0.00,VWS V14.01,2013-09-14 18:29:00,
2013-09-14 14:34:00,65.5,53.8,29.89,WNW,294,0.0,5.0,66,0.00,,OVC036,0.00,VWS V14.01,2013-09-14 18:34:00,
2013-09-14 14:39:00,65.7,54.0,29.89,WNW,289,2.0,5.0,66,0.00,,OVC036,0.00,VWS V14.01,2013-09-14 18:39:00,
2013-09-14 14:44:00,65.5,53.4,29.90,WNW,287,0.0,5.0,65,0.00,,OVC036,0.00,VWS V14.01,2013-09-14 18:44:00,
2013-09-14 14:49:00,65.3,53.7,29.90,WNW,294,1.0,6.0,66,0.00,,OVC036,0.00,VWS V14.01,2013-09-14 18:49:00,
2013-09-14 14:54:00,65.0,53.8,29.90,WNW,299,0.0,8.0,67,0.00,,OVC036,0.00,VWS V14.01,2013-09-14 18:54:00,
2013-09-14 14:59:00,65.5,53.4,29.90,NE,42,2.0,4.0,65,0.00,,OVC036,0.00,VWS V14.01,2013-09-14 18:59:00,
2013-09-14 15:04:00,65.7,53.6,29.90,West,268,2.0,7.0,65,0.00,,OVC034,0.00,VWS V14.01,2013-09-14 19:04:00,
2013-09-14 15:09:00,65.7,53.6,29.89,WNW,299,0.0,7.0,65,0.00,,OVC034,0.00,VWS V14.01,2013-09-14 19:09:00,
2013-09-14 15:14:00,66.0,53.5,29.90,NNW,342,1.0,8.0,64,0.00,,OVC034,0.00,VWS V14.01,2013-09-14 19:14:00,
2013-09-14 15:19:00,66.3,54.2,29.90,NW,320,1.0,8.0,65,0.00,,OVC034,0.00,VWS V14.01,2013-09-14 19:19:00,
2013-09-14 15:24:00,66.3,54.2,29.90,West,272,1.0,8.0,65,0.00,,OVC034,0.00,VWS V14.01,2013-09-14 19:24:00,
2013-09-14 15:29:00,65.9,53.4,29.90,NE,45,2.0,8.0,64,0.00,,OVC034,0.00,VWS V14.01,2013-09-14 19:29:00,
2013-09-14 15:34:00,65.6,53.5,29.90,North,11,0.0,8.0,65,0.00,,OVC034,0.00,VWS V14.01,2013-09-14 19:34:00,
2013-09-14 15:39:00,65.6,53.5,29.90,WNW,290,1.0,8.0,65,0.00,,OVC034,0.00,VWS V14.01,2013-09-14 19:39:00,
2013-09-14 15:44:00,65.6,53.5,29.90,NE,53,0.0,8.0,65,0.00,,OVC034,0.00,VWS V14.01,2013-09-14 19:44:00,
2013-09-14 15:49:00,65.6,53.5,29.90,NW,308,0.0,8.0,65,0.00,,OVC034,0.00,VWS V14.01,2013-09-14 19:49:00,
2013-09-14 15:54:00,65.6,53.5,29.90,WNW,283,1.0,8.0,65,0.00,,OVC034,0.00,VWS V14.01,2013-09-14 19:54:00,
2013-09-14 15:59:00,65.7,53.2,29.90,WNW,295,0.0,0.0,64,0.00,,OVC034,0.00,VWS V14.01,2013-09-14 19:59:00,
2013-09-14 16:04:00,65.8,53.3,29.90,WNW,288,0.0,2.0,64,0.00,,BKN034,0.00,VWS V14.01,2013-09-14 20:04:00,
2013-09-14 16:09:00,66.0,53.5,29.91,NW,321,0.0,2.0,64,0.00,,BKN034,0.00,VWS V14.01,2013-09-14 20:09:00,
2013-09-14 16:14:00,66.1,53.2,29.91,SW,218,0.0,2.0,63,0.00,,BKN034,0.00,VWS V14.01,2013-09-14 20:14:00,
2013-09-14 16:19:00,66.2,53.2,29.91,WSW,241,1.0,2.0,63,0.00,,BKN034,0.00,VWS V14.01,2013-09-14 20:19:00,
2013-09-14 16:24:00,66.2,53.7,29.91,WSW,244,0.0,2.0,64,0.00,,BKN034,0.00,VWS V14.01,2013-09-14 20:24:00,
2013-09-14 16:29:00,66.2,53.7,29.91,NW,307,0.0,3.0,64,0.00,,BKN034,0.00,VWS V14.01,2013-09-14 20:29:00,
2013-09-14 16:34:00,66.1,53.6,29.91,North,360,0.0,3.0,64,0.00,,BKN034,0.00,VWS V14.01,2013-09-14 20:34:00,
2013-09-14 16:39:00,65.9,53.8,29.91,SSW,213,1.0,3.0,65,0.00,,BKN034,0.00,VWS V14.01,2013-09-14 20:39:00,
2013-09-14 16:44:00,65.7,53.2,29.92,WSW,252,0.0,3.0,64,0.00,,BKN034,0.00,VWS V14.01,2013-09-14 20:44:00,
2013-09-14 16:49:00,65.5,53.4,29.92,NE,49,0.0,4.0,65,0.00,,BKN034,0.00,VWS V14.01,2013-09-14 20:49:00,
2013-09-14 16:54:00,65.6,53.5,29.92,West,280,0.0,4.0,65,0.00,,BKN034,0.00,VWS V14.01,2013-09-14 20:54:00,
2013-09-14 16:59:00,65.6,53.5,29.92,WNW,291,0.0,1.0,65,0.00,,BKN034,0.00,VWS V14.01,2013-09-14 20:59:00,
2013-09-14 17:04:00,65.5,53.4,29.92,WNW,291,2.0,2.0,65,0.00,,BKN036,0.00,VWS V14.01,2013-09-14 21:04:00,
2013-09-14 17:09:00,65.5,53.4,29.92,West,277,0.0,2.0,65,0.00,,BKN036,0.00,VWS V14.01,2013-09-14 21:09:00,
2013-09-14 17:14:00,65.5,53.4,29.93,NW,310,0.0,4.0,65,0.00,,BKN036,0.00,VWS V14.01,2013-09-14 21:14:00,
2013-09-14 17:19:00,65.3,53.7,29.93,WNW,298,1.0,4.0,66,0.00,,BKN036,0.00,VWS V14.01,2013-09-14 21:19:00,
2013-09-14 17:24:00,65.2,53.6,29.93,SSW,211,0.0,4.0,66,0.00,,BKN036,0.00,VWS V14.01,2013-09-14 21:24:00,
2013-09-14 17:29:00,65.1,53.5,29.93,WSW,253,0.0,4.0,66,0.00,,BKN036,0.00,VWS V14.01,2013-09-14 21:29:00,
2013-09-14 17:34:00,64.9,53.7,29.93,WNW,296,0.0,4.0,67,0.00,,BKN036,0.00,VWS V14.01,2013-09-14 21:34:00,
2013-09-14 17:39:00,64.9,53.3,29.94,NNW,340,0.0,4.0,66,0.00,,BKN036,0.00,VWS V14.01,2013-09-14 21:39:00,
2013-09-14 17:44:00,64.8,53.6,29.94,NW,318,0.0,5.0,67,0.00,,BKN036,0.00,VWS V14.01,2013-09-14 21:44:00,
2013-09-14 17:49:00,64.7,53.1,29.94,West,265,0.0,5.0,66,0.00,,BKN036,0.00,VWS V14.01,2013-09-14 21:49:00,
2013-09-14 17:54:00,64.6,53.4,29.94,WNW,284,1.0,5.0,67,0.00,,BKN036,0.00,VWS V14.01,2013-09-14 21:54:00,
2013-09-14 17:59:00,64.5,53.7,29.94,WNW,291,1.0,3.0,68,0.00,,BKN036,0.00,VWS V14.01,2013-09-14 21:59:00,
2013-09-14 18:04:00,64.3,53.5,29.94,West,277,0.0,3.0,68,0.00,,BKN046,0.00,VWS V14.01,2013-09-14 22:04:00,
2013-09-14 18:09:00,64.0,53.2,29.95,West,268,1.0,4.0,68,0.00,,BKN046,0.00,VWS V14.01,2013-09-14 22:09:00,
2013-09-14 18:14:00,63.7,53.7,29.95,West,280,0.0,4.0,70,0.00,,BKN046,0.00,VWS V14.01,2013-09-14 22:14:00,
2013-09-14 18:19:00,63.6,53.7,29.95,West,275,0.0,4.0,70,0.00,,BKN046,0.00,VWS V14.01,2013-09-14 22:19:00,
2013-09-14 18:24:00,63.5,53.5,29.95,WNW,292,0.0,4.0,70,0.00,,BKN046,0.00,VWS V14.01,2013-09-14 22:24:00,
2013-09-14 18:29:00,63.3,53.8,29.95,NW,323,0.0,4.0,71,0.00,,BKN046,0.00,VWS V14.01,2013-09-14 22:29:00,
2013-09-14 18:34:00,63.1,53.2,29.96,WNW,302,0.0,4.0,70,0.00,,BKN046,0.00,VWS V14.01,2013-09-14 22:34:00,
2013-09-14 18:39:00,63.0,53.1,29.96,WNW,298,0.0,4.0,70,0.00,,BKN046,0.00,VWS V14.01,2013-09-14 22:39:00,
2013-09-14 18:44:00,62.9,53.4,29.96,WNW,294,0.0,4.0,71,0.00,,BKN046,0.00,VWS V14.01,2013-09-14 22:44:00,
2013-09-14 18:49:00,62.8,52.9,29.97,NW,306,1.0,4.0,70,0.00,,BKN046,0.00,VWS V14.01,2013-09-14 22:49:00,
2013-09-14 18:54:00,62.6,52.7,29.97,NW,321,3.0,4.0,70,0.00,,BKN046,0.00,VWS V14.01,2013-09-14 22:54:00,
2013-09-14 18:59:00,62.4,52.5,29.97,WNW,288,1.0,1.0,70,0.00,,BKN046,0.00,VWS V14.01,2013-09-14 22:59:00,
2013-09-14 19:04:00,62.2,52.3,29.97,NW,311,0.0,3.0,70,0.00,,OVC046,0.00,VWS V14.01,2013-09-14 23:04:00,
2013-09-14 19:09:00,62.0,52.1,29.97,WNW,292,1.0,3.0,70,0.00,,OVC046,0.00,VWS V14.01,2013-09-14 23:09:00,
2013-09-14 19:14:00,61.7,52.2,29.97,NW,306,0.0,3.0,71,0.00,,OVC046,0.00,VWS V14.01,2013-09-14 23:14:00,
2013-09-14 19:19:00,61.4,51.9,29.97,WNW,296,0.0,3.0,71,0.00,,OVC046,0.00,VWS V14.01,2013-09-14 23:19:00,
2013-09-14 19:24:00,61.1,52.0,29.98,WNW,292,0.0,3.0,72,0.00,,OVC046,0.00,VWS V14.01,2013-09-14 23:24:00,
2013-09-14 19:29:00,60.9,51.8,29.98,WNW,296,0.0,3.0,72,0.00,,OVC046,0.00,VWS V14.01,2013-09-14 23:29:00,
2013-09-14 19:34:00,60.7,51.6,29.98,WNW,288,0.0,3.0,72,0.00,,OVC046,0.00,VWS V14.01,2013-09-14 23:34:00,
2013-09-14 19:39:00,60.5,51.8,29.98,WNW,294,0.0,3.0,73,0.00,,OVC046,0.00,VWS V14.01,2013-09-14 23:39:00,
2013-09-14 19:44:00,60.3,51.6,29.98,NE,53,0.0,3.0,73,0.00,,OVC046,0.00,VWS V14.01,2013-09-14 23:44:00,
2013-09-14 19:49:00,60.1,51.8,29.99,West,268,0.0,3.0,74,0.00,,OVC046,0.00,VWS V14.01,2013-09-14 23:49:00,
2013-09-14 19:54:00,59.9,51.6,29.99,West,271,0.0,3.0,74,0.00,,OVC046,0.00,VWS V14.01,2013-09-14 23:54:00,
2013-09-14 19:59:00,59.7,51.4,29.99,West,273,0.0,1.0,74,0.00,,OVC046,0.00,VWS V14.01,2013-09-14 23:59:00,
2013-09-14 20:04:00,59.5,51.6,29.99,West,273,0.0,1.0,75,0.00,,OVC044,0.00,VWS V14.01,2013-09-15 00:04:00,
2013-09-14 20:09:00,59.4,51.5,30.00,West,273,0.0,1.0,75,0.00,,OVC044,0.00,VWS V14.01,2013-09-15 00:09:00,
2013-09-14 20:14:00,59.2,51.7,30.00,West,273,0.0,1.0,76,0.00,,OVC044,0.00,VWS V14.01,2013-09-15 00:14:00,
2013-09-14 20:19:00,59.0,51.5,30.00,West,273,0.0,1.0,76,0.00,,OVC044,0.00,VWS V14.01,2013-09-15 00:19:00,
2013-09-14 20:24:00,58.7,51.5,30.00,West,273,0.0,1.0,77,0.00,,OVC044,0.00,VWS V14.01,2013-09-15 00:24:00,
2013-09-14 20:29:00,58.4,51.6,30.00,West,273,0.0,1.0,78,0.00,,OVC044,0.00,VWS V14.01,2013-09-15 00:29:00,
2013-09-14 20:34:00,58.3,51.5,30.00,West,272,0.0,1.0,78,0.00,,OVC044,0.00,VWS V14.01,2013-09-15 00:34:00,
2013-09-14 20:39:00,58.2,51.4,30.01,WSW,250,0.0,1.0,78,0.00,,OVC044,0.00,VWS V14.01,2013-09-15 00:39:00,
2013-09-14 20:44:00,58.2,51.4,30.01,WSW,253,0.0,1.0,78,0.00,,OVC044,0.00,VWS V14.01,2013-09-15 00:44:00,
2013-09-14 20:49:00,58.1,51.3,30.01,WSW,252,0.0,1.0,78,0.00,,OVC044,0.00,VWS V14.01,2013-09-15 00:49:00,
2013-09-14 20:54:00,58.0,51.2,30.01,WSW,252,0.0,1.0,78,0.00,,OVC044,0.00,VWS V14.01,2013-09-15 00:54:00,
2013-09-14 20:59:00,58.0,51.2,30.01,WSW,255,0.0,1.0,78,0.00,,OVC044,0.00,VWS V14.01,2013-09-15 00:59:00,
2013-09-14 21:04:00,58.0,51.2,30.01,WSW,249,0.0,1.0,78,0.00,,SCT080,0.00,VWS V14.01,2013-09-15 01:04:00,
2013-09-14 21:09:00,57.8,51.3,30.01,WSW,249,0.0,1.0,79,0.00,,SCT080,0.00,VWS V14.01,2013-09-15 01:09:00,
2013-09-14 21:14:00,57.6,51.1,30.01,SSW,203,0.0,1.0,79,0.00,,SCT080,0.00,VWS V14.01,2013-09-15 01:14:00,
2013-09-14 21:19:00,57.4,51.3,30.01,SSW,203,0.0,1.0,80,0.00,,SCT080,0.00,VWS V14.01,2013-09-15 01:19:00,
2013-09-14 21:24:00,57.2,51.1,30.01,SSW,203,0.0,1.0,80,0.00,,SCT080,0.00,VWS V14.01,2013-09-15 01:24:00,
2013-09-14 21:29:00,57.0,50.9,30.01,SSW,202,0.0,1.0,80,0.00,,SCT080,0.00,VWS V14.01,2013-09-15 01:29:00,
2013-09-14 21:34:00,56.8,51.0,30.01,SSW,203,0.0,1.0,81,0.00,,SCT080,0.00,VWS V14.01,2013-09-15 01:34:00,
2013-09-14 21:39:00,56.7,50.9,30.01,SSW,203,0.0,1.0,81,0.00,,SCT080,0.00,VWS V14.01,2013-09-15 01:39:00,
2013-09-14 21:44:00,56.5,50.8,30.01,SSW,203,0.0,1.0,81,0.00,,SCT080,0.00,VWS V14.01,2013-09-15 01:44:00,
2013-09-14 21:49:00,56.2,50.8,30.01,SSW,203,0.0,1.0,82,0.00,,SCT080,0.00,VWS V14.01,2013-09-15 01:49:00,
2013-09-14 21:54:00,56.0,50.6,30.01,SSW,203,0.0,1.0,82,0.00,,SCT080,0.00,VWS V14.01,2013-09-15 01:54:00,
2013-09-14 21:59:00,55.7,50.6,30.02,SSW,203,0.0,0.0,83,0.00,,SCT080,0.00,VWS V14.01,2013-09-15 01:59:00,
2013-09-14 22:04:00,55.5,50.8,30.02,SSW,203,0.0,0.0,84,0.00,,CLR,0.00,VWS V14.01,2013-09-15 02:04:00,
2013-09-14 22:09:00,55.1,50.7,30.02,SSW,203,0.0,0.0,85,0.00,,CLR,0.00,VWS V14.01,2013-09-15 02:09:00,
2013-09-14 22:14:00,54.7,50.6,30.02,SSW,203,0.0,0.0,86,0.00,,CLR,0.00,VWS V14.01,2013-09-15 02:14:00,
2013-09-14 22:19:00,54.4,50.6,30.02,SSW,203,0.0,0.0,87,0.00,,CLR,0.00,VWS V14.01,2013-09-15 02:19:00,
2013-09-14 22:24:00,54.1,50.3,30.02,SSW,203,0.0,0.0,87,0.00,,CLR,0.00,VWS V14.01,2013-09-15 02:24:00,
2013-09-14 22:29:00,53.8,50.3,30.02,SSW,203,0.0,0.0,88,0.00,,CLR,0.00,VWS V14.01,2013-09-15 02:29:00,
2013-09-14 22:34:00,53.6,50.1,30.02,SSW,203,0.0,0.0,88,0.00,,CLR,0.00,VWS V14.01,2013-09-15 02:34:00,
2013-09-14 22:39:00,53.4,50.2,30.02,SSW,203,0.0,0.0,89,0.00,,CLR,0.00,VWS V14.01,2013-09-15 02:39:00,
2013-09-14 22:44:00,53.3,50.5,30.03,SSW,203,0.0,0.0,90,0.00,,CLR,0.00,VWS V14.01,2013-09-15 02:44:00,
2013-09-14 22:49:00,53.2,50.3,30.03,SSW,203,0.0,0.0,90,0.00,,CLR,0.00,VWS V14.01,2013-09-15 02:49:00,
2013-09-14 22:54:00,53.1,50.2,30.03,SSW,203,0.0,0.0,90,0.00,,CLR,0.00,VWS V14.01,2013-09-15 02:54:00,
2013-09-14 22:59:00,52.9,50.0,30.03,SSW,203,0.0,0.0,90,0.00,,CLR,0.00,VWS V14.01,2013-09-15 02:59:00,
2013-09-14 23:04:00,52.8,50.0,30.03,SSW,203,0.0,0.0,90,0.00,,CLR,0.00,VWS V14.01,2013-09-15 03:04:00,
2013-09-14 23:09:00,52.6,50.0,30.03,SSW,203,0.0,0.0,91,0.00,,CLR,0.00,VWS V14.01,2013-09-15 03:09:00,
2013-09-14 23:14:00,52.4,49.8,30.03,SSW,203,0.0,0.0,91,0.00,,CLR,0.00,VWS V14.01,2013-09-15 03:14:00,
2013-09-14 23:19:00,52.2,49.7,30.03,SSW,203,0.0,0.0,91,0.00,,CLR,0.00,VWS V14.01,2013-09-15 03:19:00,
2013-09-14 23:24:00,51.9,49.4,30.03,SSW,203,0.0,0.0,91,0.00,,CLR,0.00,VWS V14.01,2013-09-15 03:24:00,
2013-09-14 23:29:00,51.9,49.7,30.03,SSW,203,0.0,0.0,92,0.00,,CLR,0.00,VWS V14.01,2013-09-15 03:29:00,
2013-09-14 23:34:00,52.0,49.8,30.04,SSW,204,0.0,0.0,92,0.00,,CLR,0.00,VWS V14.01,2013-09-15 03:34:00,
2013-09-14 23:39:00,51.9,49.7,30.04,SSW,203,0.0,0.0,92,0.00,,CLR,0.00,VWS V14.01,2013-09-15 03:39:00,
2013-09-14 23:44:00,51.8,49.5,30.04,SSW,203,0.0,0.0,92,0.00,,CLR,0.00,VWS V14.01,2013-09-15 03:44:00,
2013-09-14 23:49:00,51.7,49.8,30.04,SSW,203,0.0,0.0,93,0.00,,CLR,0.00,VWS V14.01,2013-09-15 03:49:00,
2013-09-14 23:54:00,51.5,49.5,30.04,SSW,203,0.0,0.0,93,0.00,,CLR,0.00,VWS V14.01,2013-09-15 03:54:00,
2013-09-14 23:59:00,51.3,49.3,30.04,SSW,203,0.0,0.0,93,0.00,,CLR,0.00,VWS V14.01,2013-09-15 03:59:00,